Regional Weather Roundup
Issued by NWS Charleston, SC

Current Version | Previous Version | Text Only | Print | Product List | Glossary Off
Versions: 1 2 3 4 5 6 7 8 9 10 11 12 13 14 15 16 17 18 19 20 21 22 23 24 25 26 27 28 29 30 31 32 33 34 35 36 37 38 39 40 41 42 43 44 45 46 47 48 49 50
000 ASUS42 KCHS 212327 RWRCHS Regional Weather Roundup National Weather Service Charleston SC 700 PM EDT FRI SEP 21 2018 NOTE: "fair" indicates few or no clouds below 12,000 feet with no significant weather and/or obstructions to visibility. Not all stations are quality controlled. Use data with caution, especially dewpoint observations. SCZ027-030-031-034>040-042>050-220000- ...Southeast South Carolina... CITY SKY/WX TMP DP RH WIND PRES REMARKS N Charleston FAIR 80 66 62 E8 30.10S Waterfront Prk N/A 83 71 66 E10 29.95F Mount Pleasant FAIR 79 70 73 CALM 30.11S Johns Island FAIR 79 70 73 E8 30.11S Pinopolis N/A 82 70 65 VRB2 30.05R Moncks Corner FAIR 79 70 73 CALM 30.11S Summerville FAIR 79 70 73 E3 30.11S Beaufort MCAS FAIR 82 72 71 E9 30.10S Beaufort Arpt FAIR 79 70 73 E6 30.10S Hilton Head Is CLEAR 81 70 69 E9 30.11S Walterboro CLOUDY 79 70 73 CALM 30.11S Allendale FAIR 82 68 61 CALM 30.09S ...Southern Midlands and Pee Dee... CITY SKY/WX TMP DP RH WIND PRES REMARKS Georgetown FAIR 75 68 78 E5 30.13S Kingstree FAIR 79 72 78 SE5 30.11R Orangeburg FAIR 83 67 58 SE5 30.10R Barnwell FAIR 82 68 61 SE6 30.09S Aiken FAIR 81 68 65 E3 30.13S Manning FAIR 75 64 69 CALM 30.10S Columbia FAIR 86 70 58 SE9 30.08S HX 90 Sumter FAIR 83 68 60 SE7 30.09R Florence FAIR 82 69 64 SE6 30.11R Myrtle Beach FAIR 78 69 73 E7 30.12S N Myrtle Beach FAIR 79 68 69 SE6 30.12R $$ GAZ063-065-086>088-099>101-113>116-118-119-134>141-150-220000- ...Southeast Georgia... CITY SKY/WX TMP DP RH WIND PRES REMARKS Savannah Arpt FAIR 82 69 64 E13 30.10S Hunter AAF NOT AVBL Fort Stewart NOT AVBL Statesboro FAIR 80 69 69 SE5 30.09S Sylvania FAIR 81 71 71 S3 30.11S Claxton FAIR 84 68 59 E6 30.09R ...CSRA, Central and far Southeast Georgia... CITY SKY/WX TMP DP RH WIND PRES REMARKS Thomson FAIR 83 67 59 S5 30.13S Augusta-Bush FAIR 85 70 60 SE6 30.07R Augusta-Daniel MOCLDY 88 69 53 SE7 30.09R HX 92 Swainsboro MOCLDY 84 70 61 SE16 30.09R Vidalia MOCLDY 84 64 51 SE8 30.08S Eastman FAIR 84 70 62 SE6 30.08S Hazlehurst FAIR 85 66 53 SE7 30.07R Alma FAIR 84 71 65 SE6 30.07R Waycross FAIR 81 75 82 SE6 30.07S Jesup FAIR 82 70 65 CALM 30.08S Baxley FAIR 81 68 65 E6 30.07F Brunswick FAIR 81 68 65 E8 30.08F Saint Simons FAIR 83 70 64 E10 30.07S $$ SCZ027-028-034-036>038-045-046-048>050-GAZ119-141-220000- ...Lake and Supplemental Coastal Observations... STATION/POSITION TIME TEMP WIND PRES WAVE SWELL AIR SEA DIR/SP/G HT/PER HT/PER/DIR (UTC) (F) (DEG/KT/KT) (MB) (FT/S) (FT/S/D) Winyah Bay 2245 80 100/ 8 1020.0S Lake Murray 2220 87 110/ 4/ 8 1017.6 ACE Basin NERRS 2245 82 100/ 2 1019.0S Fort Pulaski 2300 81 84 1019.7 Sapelo Island 2230 83 80/ 9 1018.0F $$ ANZ835-935-AMZ111-154-330-350-352-354-370-450-454-472-220000- ...C-MAN and Buoy Observations... STATION/POSITION TIME TEMP WIND PRES WAVE SWELL AIR SEA DIR/SP/G HT/PER HT/PER/DIR (UTC) (F) (DEG/KT/KT) (MB) (FT/S) (FT/S/D) Buoy 41004 2310 81 60/ 12/ 14 1018.9 Buoy 41008 2250 82 84 80/ 14/ 16 1018.3S 3/ 4 2/110/10 Folly Beach CMAN 2300 80 80/ 13/ 14 1020.1F Capers Nearshore 2308 80 83 80/ 12/ 16 1018.6S Fripp Nearshore 2308 80 84 80/ 12/ 17 1018.6F STATION/POSITION TIME TEMP WIND PRES WAVE SWELL AIR SEA DIR/SP/G HT/PER HT/PER/DIR (UTC) (F) (DEG/KT/KT) (MB) (FT/S) (FT/S/D) 5E St. Marys GA 2300 85 N/A 4/ 4 Frying Pan Buoy 2310 79 60/ 12/ 14 1019.7 Buoy 41025 2310 78 79 20/ 8/ 10 1020.1 Cape Lookout NC 2300 60/ 8/ 9 1020.3S Buoy 41002 2310 84 60/ 8/ 10 1017.7 Buoy 41010 2310 83 85 80/ 14/ 17 1017.3 St Augustine FL 2300 82 82 90/ 9/ 10 1018.1F $$

USA.gov is the U.S. government's official web portal to all federal, state and local government web resources and services.